Time[GMT],current_speed[cm/s](2m),current_direction[angular_degrees](2m),temperature[C](2m),current_u[cm/s](2m),current_v[cm/s](2m)
2008-10-01 15:00,10.85,169.3,15.72,2.02,-10.66
2008-10-01 16:00,12.61,159.1,15.66,4.50,-11.78
2008-10-01 17:00,15.25,131.7,15.66,11.39,-10.14
2008-10-01 18:00,18.18,123.2,15.69,15.21,-9.97
2008-10-01 20:00,21.70,123.6,15.66,18.08,-12.01
2008-10-01 21:00,21.70,106.0,15.63,20.86,-5.98
2008-10-01 22:00,20.53,116.6,15.56,18.37,-9.18
2008-10-01 23:00,16.72,111.3,15.53,15.58,-6.07
2008-10-02 00:00,14.37,131.3,15.53,10.79,-9.49
2008-10-02 01:00,19.06,146.8,15.47,10.44,-15.95
2008-10-02 02:00,18.48,151.4,15.50,8.86,-16.22
2008-10-02 03:00,24.34,166.8,15.44,5.55,-23.70
2008-10-02 04:00,23.76,161.6,15.47,7.52,-22.54
2008-10-02 05:00,26.40,163.3,15.44,7.58,-25.29
2008-10-02 06:00,23.76,161.2,15.44,7.65,-22.49
2008-10-02 07:00,24.34,153.8,15.47,10.74,-21.85
2008-10-02 08:00,19.36,176.7,15.53,1.12,-19.33
2008-10-02 09:00,17.60,149.3,15.56,9.00,-15.12
2008-10-02 10:00,9.68,133.8,15.53,6.99,-6.70
2008-10-02 11:00,9.39,151.0,15.28,4.55,-8.21
2008-10-02 12:00,10.56,198.5,15.37,-3.35,-10.01
2008-10-02 13:00,9.09,129.9,15.41,6.97,-5.83
2008-10-02 14:00,20.24,129.9,15.41,15.52,-12.99
2008-10-02 15:00,27.86,142.9,15.37,16.80,-22.23
2008-10-02 16:00,38.13,144.7,15.31,22.04,-31.11
2008-10-02 19:00,47.22,133.8,15.09,34.09,-32.67
2008-10-02 21:00,42.24,138.0,14.84,28.26,-31.39
2008-10-02 22:00,37.54,129.9,14.75,28.80,-24.09
2008-10-02 23:00,31.09,131.7,14.68,23.22,-20.67
2008-10-03 00:00,19.94,164.0,14.56,5.49,-19.17
2008-10-03 01:00,20.53,173.5,14.43,2.32,-20.40
2008-10-03 02:00,24.93,244.9,14.87,-22.57,-10.58
2008-10-03 03:00,19.36,236.1,14.68,-16.07,-10.80
2008-10-03 04:00,14.08,211.5,14.78,-7.35,-12.01
2008-10-03 06:00,,,,,
2008-10-03 07:00,13.49,157.7,14.81,5.12,-12.48
2008-10-03 08:00,13.20,135.2,14.75,9.30,-9.36
2008-10-03 09:00,17.01,118.3,14.65,14.98,-8.07
2008-10-03 10:00,20.82,78.2,14.49,20.39,4.25
2008-10-03 11:00,17.60,67.7,14.49,16.28,6.68
2008-10-03 12:00,8.21,80.3,14.53,8.10,1.38
2008-10-03 13:00,12.03,55.4,14.24,9.90,6.83
2008-10-03 14:00,11.44,63.1,14.24,10.20,5.17
2008-10-03 15:00,14.37,76.1,14.27,13.95,3.45
2008-10-03 16:00,17.60,93.7,14.24,17.56,-1.14
2008-10-03 18:00,32.85,122.5,14.15,27.70,-17.66
2008-10-03 19:00,36.66,121.1,14.09,31.38,-18.95
2008-10-03 20:00,34.61,123.2,14.02,28.95,-18.97
2008-10-03 22:00,27.57,136.2,13.77,19.07,-19.91
2008-10-03 23:00,15.84,116.9,13.68,14.12,-7.17
2008-10-04 00:00,7.63,135.2,13.52,5.37,-5.41
2008-10-04 01:00,9.09,154.2,13.40,3.96,-8.18
2008-10-04 02:00,15.54,275.5,13.77,-15.47,1.48
2008-10-04 03:00,2.93,266.0,13.87,-2.93,-0.21
2008-10-04 04:00,5.87,333.1,13.87,-2.65,5.23
2008-10-04 05:00,6.75,304.3,13.80,-5.57,3.80
2008-10-04 06:00,9.39,80.0,13.77,9.24,1.63
2008-10-04 07:00,20.82,85.3,13.80,20.75,1.72
2008-10-04 08:00,22.88,91.9,13.80,22.86,-0.77
2008-10-04 09:00,31.68,90.9,13.68,31.67,-0.49
2008-10-04 10:00,32.56,87.0,13.84,32.51,1.69
2008-10-04 11:00,27.28,103.2,13.58,26.56,-6.23
2008-10-04 12:00,19.94,137.3,13.14,13.53,-14.66
2008-10-04 14:00,,,,,
2008-10-04 15:00,2.93,196.4,13.36,-0.83,-2.81
2008-10-04 16:00,12.91,315.6,13.87,-9.04,9.21
2008-10-04 17:00,3.52,306.8,13.80,-2.82,2.11
2008-10-04 18:00,1.47,341.6,13.84,-0.46,1.39
2008-10-04 19:00,5.57,16.7,13.80,1.60,5.34
2008-10-04 20:00,11.73,56.4,13.84,9.78,6.49
2008-10-04 21:00,20.24,65.2,13.87,18.37,8.48
2008-10-04 22:00,21.70,70.1,13.93,20.41,7.37
2008-10-04 23:00,18.77,99.0,13.46,18.54,-2.93
2008-10-05 00:00,12.32,111.3,13.30,11.48,-4.47
2008-10-05 01:00,4.99,276.2,13.46,-4.96,0.54
2008-10-05 02:00,18.18,297.3,13.65,-16.16,8.33
2008-10-05 03:00,14.96,317.0,13.52,-10.21,10.93
2008-10-05 04:00,13.20,333.8,13.55,-5.82,11.85
2008-10-05 05:00,18.48,317.0,13.71,-12.61,13.51
2008-10-05 06:00,15.54,319.1,13.71,-10.18,11.75
2008-10-05 07:00,14.96,6.5,13.68,1.69,14.86
2008-10-05 08:00,18.18,16.0,13.58,5.01,17.48
2008-10-05 09:00,15.25,43.8,13.11,10.55,11.01
2008-10-05 10:00,12.91,110.9,12.99,12.05,-4.61
2008-10-05 11:00,18.48,144.3,13.14,10.77,-15.01
2008-10-05 12:00,12.32,174.9,13.18,1.09,-12.27
2008-10-05 13:00,9.68,210.8,13.24,-4.95,-8.32
2008-10-05 14:00,29.04,270.6,13.46,-29.04,0.28
2008-10-05 15:00,33.73,293.1,13.55,-31.04,13.21
2008-10-05 16:00,37.54,299.4,13.55,-32.71,18.42
2008-10-05 17:00,36.66,310.6,13.58,-27.82,23.88
2008-10-05 18:00,25.52,335.6,13.62,-10.54,23.24
2008-10-05 19:00,24.64,353.8,13.58,-2.64,24.50
2008-10-05 20:00,24.93,20.9,13.68,8.90,23.29
2008-10-05 21:00,31.68,36.4,13.74,18.79,25.50
2008-10-05 22:00,27.57,101.1,12.83,27.06,-5.30
2008-10-05 23:00,41.36,119.0,12.89,36.17,-20.06
2008-10-06 00:00,34.90,110.6,12.99,32.68,-12.27
2008-10-06 01:00,25.22,126.0,12.83,20.39,-14.84
2008-10-06 02:00,25.52,110.6,12.96,23.89,-8.97
2008-10-06 03:00,33.44,123.9,13.21,27.74,-18.67
2008-10-06 04:00,24.05,287.8,12.93,-22.90,7.35
2008-10-06 05:00,29.62,297.6,13.36,-26.25,13.74
2008-10-06 06:00,21.41,312.4,13.49,-15.81,14.44
2008-10-06 07:00,16.42,317.3,13.43,-11.14,12.07
2008-10-06 08:00,11.15,301.5,13.46,-9.50,5.82
2008-10-06 09:00,7.63,253.0,13.40,-7.29,-2.23
2008-10-06 10:00,9.09,201.3,13.40,-3.30,-8.47
2008-10-06 11:00,,,,,
2008-10-06 12:00,7.33,221.7,13.30,-4.88,-5.48
2008-10-06 13:00,6.45,270.2,13.33,-6.45,0.02
2008-10-06 14:00,11.44,231.9,13.40,-9.00,-7.06
2008-10-06 15:00,22.29,262.1,13.68,-22.08,-3.06
2008-10-06 16:00,23.46,291.3,13.90,-21.86,8.52
2008-10-06 17:00,29.33,280.8,14.02,-28.82,5.47
2008-10-06 19:00,26.10,301.5,14.06,-22.26,13.64
2008-10-06 20:00,20.82,337.7,14.02,-7.90,19.27
2008-10-06 21:00,13.49,358.4,13.99,-0.37,13.49
2008-10-06 22:00,14.96,46.2,13.90,10.80,10.35
2008-10-06 23:00,19.36,90.5,13.52,19.36,-0.18
2008-10-07 00:00,38.42,122.9,13.18,32.27,-20.86
2008-10-07 01:00,32.26,130.3,13.02,24.62,-20.85
2008-10-07 02:00,24.93,168.2,13.11,5.08,-24.41
2008-10-07 03:00,20.82,210.8,13.43,-10.66,-17.89
2008-10-07 04:00,31.09,248.1,13.65,-28.84,-11.62
2008-10-07 05:00,19.36,250.2,13.62,-18.21,-6.57
2008-10-07 06:00,29.62,272.3,13.65,-29.60,1.20
2008-10-07 07:00,19.65,272.7,13.65,-19.63,0.91
2008-10-07 08:00,9.09,299.0,13.62,-7.95,4.41
2008-10-07 09:00,2.93,332.8,13.55,-1.34,2.61
2008-10-07 10:00,2.35,132.0,13.52,1.74,-1.57
2008-10-07 11:00,10.56,138.7,13.49,6.97,-7.93
2008-10-07 12:00,13.49,136.2,13.43,9.33,-9.74
2008-10-07 16:00,7.63,211.1,13.46,-3.94,-6.53
2008-10-07 21:00,5.87,290.6,14.06,-5.49,2.06
2008-10-07 22:00,5.57,337.4,13.99,-2.15,5.14
2008-10-07 23:00,2.05,354.2,13.96,-0.21,2.04
2008-10-08 00:00,3.23,157.7,13.96,1.22,-2.98
2008-10-08 01:00,4.11,160.2,13.90,1.39,-3.86
2008-10-08 02:00,3.81,105.7,13.87,3.67,-1.03
2008-10-08 03:00,4.69,227.0,13.84,-3.43,-3.20
2008-10-08 04:00,11.15,237.9,13.80,-9.44,-5.93
2008-10-08 05:00,14.96,272.3,13.74,-14.95,0.60
2008-10-08 06:00,17.30,269.9,13.74,-17.30,-0.05
2008-10-08 07:00,24.93,273.7,13.74,-24.88,1.62
2008-10-08 08:00,17.89,283.6,13.74,-17.39,4.20
2008-10-08 09:00,10.27,279.0,13.68,-10.14,1.60
2008-10-08 10:00,9.97,277.9,13.65,-9.88,1.38
2008-10-08 11:00,4.99,280.8,13.65,-4.90,0.93
2008-10-08 12:00,0.59,165.8,13.65,0.14,-0.57
2008-10-08 13:00,3.23,183.0,13.65,-0.17,-3.22
2008-10-08 14:00,5.28,212.5,13.68,-2.84,-4.45
2008-10-08 21:00,19.06,325.8,13.52,-10.73,15.76
2008-10-08 22:00,19.65,329.3,13.55,-10.04,16.89
2008-10-08 23:00,13.79,340.5,13.27,-4.60,13.00
2008-10-09 00:00,6.16,34.6,13.14,3.50,5.07
2008-10-09 01:00,5.28,59.2,13.21,4.54,2.70
2008-10-09 02:00,2.64,78.9,13.40,2.59,0.51
2008-10-09 03:00,5.57,169.3,13.43,1.04,-5.48
2008-10-09 04:00,2.93,144.0,13.49,1.72,-2.37
2008-10-09 05:00,2.64,190.0,13.49,-0.46,-2.60
2008-10-09 06:00,6.75,218.9,13.52,-4.23,-5.25
2008-10-09 07:00,8.80,238.9,13.46,-7.54,-4.54
2008-10-09 08:00,15.54,239.3,13.43,-13.36,-7.95
2008-10-09 09:00,14.96,242.4,13.36,-13.26,-6.92
2008-10-09 10:00,15.25,242.1,13.14,-13.48,-7.14
2008-10-09 11:00,9.68,234.3,13.08,-7.86,-5.64
2008-10-09 12:00,2.93,87.0,13.08,2.93,0.15
2008-10-09 13:00,6.16,177.7,13.21,0.24,-6.15
2008-10-09 14:00,7.04,122.5,13.27,5.93,-3.79
2008-10-09 15:00,8.80,159.8,13.49,3.04,-8.26
2008-10-09 19:00,9.39,186.9,13.80,-1.12,-9.32
2008-10-09 21:00,19.65,209.0,13.87,-9.53,-17.18
2008-10-09 22:00,18.18,223.4,13.80,-12.50,-13.20
2008-10-09 23:00,12.91,209.7,13.80,-6.40,-11.21
2008-10-10 00:00,11.44,174.2,13.77,1.15,-11.38
2008-10-10 01:00,15.54,162.3,13.77,4.74,-14.81
2008-10-10 02:00,14.96,162.3,13.74,4.56,-14.25
2008-10-10 03:00,14.96,154.2,13.77,6.52,-13.46
2008-10-10 04:00,8.21,164.7,13.77,2.16,-7.92
2008-10-10 05:00,5.87,166.8,13.77,1.34,-5.71
2008-10-10 06:00,8.21,210.4,13.77,-4.16,-7.08
2008-10-10 07:00,12.03,218.2,13.71,-7.43,-9.45
2008-10-10 08:00,3.52,205.9,13.68,-1.54,-3.17
2008-10-10 09:00,8.51,215.4,13.68,-4.92,-6.94
2008-10-10 10:00,13.20,170.7,13.65,2.13,-13.03
2008-10-10 11:00,16.42,160.9,13.55,5.39,-15.52
2008-10-10 12:00,22.00,154.9,13.55,9.34,-19.92
2008-10-10 13:00,24.34,153.8,13.62,10.74,-21.85
2008-10-10 21:00,12.61,262.5,13.90,-12.50,-1.65
2008-10-10 22:00,10.27,263.9,13.80,-10.21,-1.10
2008-10-10 23:00,3.52,245.2,13.77,-3.20,-1.47
2008-10-11 00:00,4.99,224.1,13.84,-3.47,-3.58
2008-10-11 01:00,8.80,116.6,13.71,7.87,-3.93
2008-10-11 02:00,14.96,144.0,13.93,8.80,-12.10
2008-10-11 03:00,16.72,144.3,13.87,9.75,-13.58
2008-10-11 04:00,16.42,129.2,13.96,12.73,-10.38
2008-10-11 05:00,17.89,132.7,13.96,13.14,-12.14
2008-10-11 06:00,16.13,146.4,13.90,8.92,-13.44
2008-10-11 07:00,15.54,187.9,13.87,-2.14,-15.40
2008-10-11 08:00,13.79,202.0,13.87,-5.16,-12.78
2008-10-11 09:00,15.54,199.2,13.77,-5.11,-14.68
2008-10-11 10:00,12.32,254.7,13.46,-11.88,-3.24
2008-10-11 11:00,7.33,238.9,13.49,-6.28,-3.79
2008-10-11 12:00,4.99,212.5,13.46,-2.68,-4.20
2008-10-11 21:00,9.97,157.7,13.84,3.79,-9.23
2008-10-11 22:00,5.28,177.7,14.15,0.21,-5.28
2008-10-11 23:00,7.04,159.4,14.02,2.47,-6.59
2008-10-12 00:00,9.09,139.1,13.96,5.96,-6.87
2008-10-12 01:00,22.00,135.9,13.99,15.31,-15.79
2008-10-12 02:00,21.12,147.1,13.93,11.46,-17.74
2008-10-12 03:00,23.46,150.7,13.90,11.50,-20.45
2008-10-12 04:00,21.41,146.8,13.84,11.73,-17.91
2008-10-12 05:00,22.29,135.5,14.02,15.61,-15.91
2008-10-12 07:00,,,,,
2008-10-12 08:00,6.75,223.8,13.77,-4.67,-4.87
2008-10-12 09:00,9.39,255.8,13.71,-9.10,-2.30
2008-10-12 10:00,10.85,262.8,13.71,-10.77,-1.36
2008-10-12 11:00,7.33,275.1,13.71,-7.30,0.65
2008-10-12 12:00,6.16,249.1,13.68,-5.75,-2.20
2008-10-12 14:00,7.33,127.5,13.71,5.82,-4.46
2008-10-12 18:00,22.58,77.9,14.18,22.08,4.74
2008-10-12 21:00,7.92,105.3,14.46,7.64,-2.09
2008-10-12 22:00,3.81,128.9,14.49,2.97,-2.39
2008-10-12 23:00,3.81,96.2,14.37,3.79,-0.41
2008-10-13 00:00,6.75,150.3,14.27,3.34,-5.86
2008-10-13 01:00,4.40,147.8,14.27,2.34,-3.72
2008-10-13 02:00,7.04,91.6,14.24,7.04,-0.20
2008-10-13 03:00,15.84,80.3,14.18,15.61,2.66
2008-10-13 04:00,15.54,92.3,14.09,15.53,-0.62
2008-10-13 05:00,21.12,69.1,14.02,19.73,7.54
2008-10-13 06:00,25.22,79.6,14.09,24.81,4.54
2008-10-13 07:00,22.00,83.9,14.12,21.87,2.35
2008-10-13 08:00,9.39,69.4,14.09,8.79,3.30
2008-10-13 09:00,4.11,94.1,14.09,4.10,-0.29
2008-10-13 10:00,2.05,195.7,14.09,-0.55,-1.98
2008-10-13 11:00,5.28,213.2,14.06,-2.89,-4.42
2008-10-13 12:00,5.28,223.1,14.06,-3.61,-3.86
2008-10-13 13:00,5.57,242.8,14.06,-4.96,-2.55
2008-10-13 14:00,4.99,238.6,14.09,-4.25,-2.60
2008-10-13 15:00,2.64,234.0,14.12,-2.14,-1.55
2008-10-13 16:00,1.76,34.3,14.18,0.99,1.45
2008-10-13 17:00,6.45,4.7,14.21,0.53,6.43
2008-10-13 19:00,11.15,36.7,14.40,6.67,8.93
2008-10-13 21:00,9.97,358.8,14.34,-0.21,9.97
2008-10-13 22:00,11.73,302.5,14.34,-9.89,6.31
2008-10-13 23:00,9.39,321.2,14.31,-5.88,7.31
2008-10-14 00:00,4.99,297.6,14.27,-4.42,2.31
2008-10-14 01:00,5.57,327.9,14.27,-2.96,4.72
2008-10-14 02:00,2.35,19.2,14.24,0.77,2.22
2008-10-14 03:00,4.40,13.5,14.24,1.03,4.28
2008-10-14 04:00,10.56,55.7,14.21,8.73,5.95
2008-10-14 05:00,14.08,71.5,14.24,13.35,4.46
2008-10-14 06:00,19.36,64.2,14.24,17.42,8.44
2008-10-14 07:00,19.06,74.7,14.21,18.39,5.03
2008-10-14 08:00,14.96,80.3,14.24,14.75,2.51
2008-10-14 09:00,4.69,62.1,14.24,4.15,2.20
2008-10-14 10:00,5.28,333.5,14.24,-2.36,4.72
2008-10-14 11:00,8.21,296.6,14.24,-7.34,3.67
2008-10-14 12:00,6.16,306.8,14.24,-4.93,3.69
2008-10-14 13:00,6.16,323.6,14.24,-3.65,4.96
2008-10-14 14:00,6.45,330.7,14.27,-3.16,5.63
2008-10-14 18:00,28.74,51.2,14.37,22.39,18.03
2008-10-14 20:00,32.85,51.5,14.40,25.71,20.45
2008-10-14 21:00,26.40,56.1,14.40,21.90,14.73
2008-10-14 22:00,14.96,24.1,14.40,6.10,13.66
2008-10-14 23:00,9.09,56.8,14.40,7.61,4.98
2008-10-15 01:00,8.51,17.1,14.37,2.49,8.13
2008-10-15 02:00,7.04,85.3,14.34,7.02,0.58
2008-10-15 03:00,13.20,103.9,14.31,12.81,-3.17
2008-10-15 04:00,,,,,
2008-10-15 05:00,17.60,98.6,14.27,17.40,-2.64
2008-10-15 06:00,23.76,84.2,14.21,23.64,2.40
2008-10-15 07:00,21.41,94.1,14.18,21.36,-1.51
2008-10-15 08:00,22.58,100.4,14.12,22.21,-4.07
2008-10-15 09:00,11.44,106.0,14.09,11.00,-3.15
2008-10-15 10:00,1.47,122.2,14.06,1.24,-0.78
2008-10-15 11:00,15.25,276.2,14.12,-15.16,1.64
2008-10-15 12:00,21.41,262.5,14.15,-21.23,-2.81
2008-10-15 13:00,17.89,287.4,14.21,-17.07,5.36
2008-10-15 14:00,22.58,281.1,14.27,-22.16,4.35
2008-10-15 18:00,20.24,52.2,14.53,15.99,12.40
2008-10-15 21:00,22.58,64.9,14.46,20.45,9.59
2008-10-15 22:00,12.32,86.0,14.37,12.29,0.87
2008-10-15 23:00,4.99,110.2,14.27,4.68,-1.72
2008-10-16 00:00,6.16,165.8,14.27,1.51,-5.97
2008-10-16 01:00,2.05,132.4,14.24,1.52,-1.38
2008-10-16 02:00,2.35,198.1,14.24,-0.73,-2.23
2008-10-16 03:00,6.45,194.6,14.24,-1.63,-6.24
2008-10-16 04:00,2.05,354.5,14.21,-0.20,2.04
2008-10-16 05:00,10.85,62.4,14.21,9.62,5.03
2008-10-16 06:00,15.84,57.1,14.21,13.30,8.60
2008-10-16 07:00,24.93,65.2,14.21,22.63,10.45
2008-10-16 08:00,26.10,80.3,14.21,25.73,4.38
2008-10-16 09:00,23.17,80.7,14.18,22.87,3.75
2008-10-16 10:00,17.01,78.6,14.21,16.67,3.37
2008-10-16 11:00,3.52,110.9,14.18,3.29,-1.26
2008-10-16 12:00,7.92,290.6,14.18,-7.41,2.79
2008-10-16 13:00,6.45,346.1,14.15,-1.55,6.26
2008-10-16 14:00,6.75,6.9,14.15,0.81,6.70
2008-10-16 15:00,7.33,7.9,14.21,1.01,7.26
2008-10-16 16:00,13.20,22.7,14.21,5.09,12.18
2008-10-16 17:00,12.03,27.2,14.21,5.51,10.69
2008-10-16 18:00,22.58,52.9,14.24,18.02,13.62
2008-10-16 19:00,28.16,71.2,14.24,26.65,9.08
2008-10-16 20:00,29.04,63.5,14.24,25.98,12.97
2008-10-16 21:00,29.33,78.6,14.27,28.75,5.81
2008-10-16 22:00,29.33,78.9,14.27,28.78,5.63
2008-10-16 23:00,20.53,84.2,14.31,20.43,2.07
2008-10-17 00:00,9.39,141.9,14.27,5.80,-7.38
2008-10-17 01:00,8.51,175.3,14.27,0.70,-8.48
2008-10-17 02:00,14.37,204.5,14.21,-5.95,-13.08
2008-10-17 03:00,20.24,203.4,14.18,-8.04,-18.57
2008-10-17 04:00,23.17,215.4,14.15,-13.41,-18.90
2008-10-17 05:00,10.56,186.5,14.15,-1.20,-10.49
2008-10-17 06:00,7.04,151.0,14.12,3.41,-6.16
2008-10-17 07:00,,,,,
2008-10-17 08:00,12.61,84.6,14.06,12.56,1.20
2008-10-17 09:00,8.21,67.0,14.02,7.56,3.21
2008-10-17 10:00,4.99,78.9,14.02,4.89,0.96
2008-10-17 11:00,1.47,285.7,13.99,-1.41,0.40
2008-10-17 12:00,4.69,301.8,13.99,-3.99,2.48
2008-10-17 13:00,4.99,225.2,13.96,-3.54,-3.51
2008-10-17 14:00,12.61,230.5,13.96,-9.73,-8.03
2008-10-17 15:00,9.09,252.6,13.99,-8.68,-2.72
2008-10-17 16:00,7.33,234.3,14.02,-5.96,-4.27
2008-10-17 17:00,4.40,226.3,14.02,-3.18,-3.04
2008-10-17 19:00,12.32,75.1,14.12,11.90,3.17
2008-10-17 20:00,13.79,89.1,14.15,13.78,0.21
2008-10-17 21:00,13.79,82.8,14.18,13.68,1.73
2008-10-17 22:00,19.06,71.5,14.15,18.08,6.03
2008-10-17 23:00,16.42,65.6,14.12,14.95,6.79
2008-10-18 00:00,7.04,358.4,14.12,-0.19,7.04
2008-10-18 01:00,8.80,315.2,14.12,-6.20,6.24
2008-10-18 02:00,8.51,321.5,14.12,-5.29,6.66
2008-10-18 03:00,5.87,247.7,14.09,-5.43,-2.23
2008-10-18 04:00,7.92,229.4,14.02,-6.01,-5.15
2008-10-18 05:00,6.45,154.5,13.99,2.78,-5.83
2008-10-18 06:00,11.73,231.2,13.93,-9.14,-7.36
2008-10-18 07:00,2.05,253.3,13.90,-1.97,-0.59
2008-10-18 08:00,3.81,124.3,13.87,3.15,-2.15
2008-10-18 09:00,9.97,78.2,13.87,9.76,2.03
2008-10-18 10:00,5.57,65.2,13.80,5.06,2.34
2008-10-18 11:00,2.64,177.4,13.77,0.12,-2.64
2008-10-18 12:00,12.91,243.8,13.74,-11.58,-5.69
2008-10-18 13:00,13.79,252.6,13.74,-13.16,-4.12
2008-10-18 14:00,19.06,275.5,13.71,-18.98,1.82
2008-10-18 15:00,17.01,307.8,13.65,-13.44,10.43
2008-10-18 16:00,10.85,313.8,13.65,-7.83,7.51
2008-10-18 17:00,4.11,62.8,13.62,3.65,1.88
2008-10-18 18:00,7.33,58.5,13.62,6.25,3.83
2008-10-18 19:00,,,,,
2008-10-18 20:00,20.24,100.4,13.58,19.91,-3.65
2008-10-18 21:00,19.65,100.4,13.55,19.33,-3.54
2008-10-18 22:00,22.29,107.8,13.52,21.23,-6.80
2008-10-18 23:00,17.60,120.1,13.49,15.23,-8.82
2008-10-19 00:00,10.56,123.2,13.46,8.83,-5.79
2008-10-19 01:00,5.28,176.3,13.43,0.34,-5.27
2008-10-19 02:00,12.03,260.0,13.43,-11.84,-2.09
2008-10-19 03:00,19.06,290.2,13.43,-17.89,6.60
2008-10-19 04:00,14.08,286.4,13.46,-13.51,3.97
2008-10-19 05:00,4.40,294.5,13.46,-4.00,1.82
2008-10-19 06:00,8.80,256.5,13.43,-8.56,-2.06
2008-10-19 07:00,6.45,219.6,13.43,-4.11,-4.97
2008-10-19 08:00,14.37,128.2,13.40,11.30,-8.88
2008-10-19 09:00,11.44,129.6,13.40,8.82,-7.29
2008-10-19 10:00,12.32,153.5,13.40,5.50,-11.02
2008-10-19 11:00,14.96,116.6,13.40,13.38,-6.69
2008-10-19 12:00,11.44,160.5,13.40,3.82,-10.78
2008-10-19 13:00,15.84,210.4,13.33,-8.02,-13.66
2008-10-19 14:00,23.46,239.6,13.30,-20.24,-11.87
2008-10-19 15:00,25.81,242.8,13.27,-22.95,-11.81
2008-10-19 16:00,16.42,242.8,13.24,-14.61,-7.51
2008-10-19 17:00,14.66,265.3,13.21,-14.62,-1.21
2008-10-19 18:00,13.49,280.0,13.24,-13.28,2.35
2008-10-19 19:00,1.17,285.7,13.21,-1.13,0.32
2008-10-19 20:00,8.80,121.5,13.24,7.50,-4.59
2008-10-19 21:00,11.73,120.4,13.24,10.12,-5.94
2008-10-19 22:00,14.66,125.0,13.24,12.01,-8.41
2008-10-19 23:00,,,,,
2008-10-20 00:00,24.34,136.2,13.18,16.84,-17.58
2008-10-20 01:00,18.48,168.6,13.18,3.66,-18.11
2008-10-20 02:00,14.37,195.0,13.14,-3.71,-13.88
2008-10-20 03:00,15.84,211.5,13.11,-8.27,-13.51
2008-10-20 04:00,23.17,234.7,13.05,-18.91,-13.39
2008-10-20 05:00,20.24,240.7,13.02,-17.64,-9.91
2008-10-20 06:00,19.65,253.3,13.02,-18.82,-5.64
2008-10-20 07:00,11.44,253.7,13.02,-10.98,-3.21
2008-10-20 08:00,6.16,350.7,13.05,-1.00,6.08
2008-10-20 09:00,10.27,116.9,13.05,9.15,-4.65
2008-10-20 10:00,15.25,126.7,13.02,12.22,-9.13
2008-10-20 11:00,19.65,117.6,13.02,17.41,-9.11
2008-10-20 13:00,18.48,155.2,12.99,7.74,-16.78
2008-10-20 14:00,19.36,168.6,12.96,3.83,-18.98
2008-10-20 15:00,24.34,183.4,12.96,-1.43,-24.30
2008-10-20 16:00,22.88,195.3,12.96,-6.04,-22.07
2008-10-20 17:00,18.48,180.5,12.86,-0.18,-18.48
2008-10-20 18:00,14.66,217.8,12.77,-8.99,-11.59
2008-10-20 19:00,8.21,256.1,12.93,-7.97,-1.97
2008-10-20 20:00,4.40,270.9,12.93,-4.40,0.07
2008-10-20 21:00,5.87,42.7,12.96,3.98,4.31
2008-10-20 22:00,8.21,88.8,12.96,8.21,0.18
2008-10-20 23:00,15.84,108.1,12.96,15.05,-4.92
2008-10-21 00:00,20.53,80.3,12.93,20.24,3.45
2008-10-21 01:00,27.28,84.6,12.93,27.15,2.59
2008-10-21 02:00,28.74,95.8,12.89,28.60,-2.91
2008-10-21 03:00,24.93,105.3,12.89,24.05,-6.58
2008-10-21 04:00,21.12,105.7,12.80,20.33,-5.70
2008-10-21 05:00,7.92,139.1,12.67,5.19,-5.98
2008-10-21 06:00,5.28,240.3,12.67,-4.59,-2.61
2008-10-21 07:00,6.45,291.3,12.71,-6.01,2.34
2008-10-21 08:00,5.57,346.1,12.77,-1.34,5.41
2008-10-21 09:00,10.56,42.0,12.80,7.07,7.84
2008-10-21 10:00,15.25,71.9,12.80,14.50,4.74
2008-10-21 11:00,12.03,66.3,12.74,11.01,4.84
2008-10-21 12:00,19.06,65.2,12.71,17.31,7.99
2008-10-21 13:00,20.53,74.7,12.67,19.80,5.41
2008-10-21 14:00,19.36,71.5,12.58,18.36,6.13
2008-10-21 15:00,19.06,50.5,12.61,14.70,12.14
2008-10-21 16:00,11.73,40.6,12.71,7.64,8.91
2008-10-21 17:00,13.49,344.7,12.86,-3.56,13.01
2008-10-21 18:00,17.01,334.5,12.89,-7.31,15.36
2008-10-21 19:00,13.79,325.4,12.93,-7.83,11.35
2008-10-21 20:00,15.54,344.7,12.93,-4.10,14.99
2008-10-21 21:00,13.49,10.7,12.93,2.51,13.26
2008-10-21 22:00,13.79,36.7,12.93,8.25,11.05
2008-10-21 23:00,14.08,44.8,12.89,9.92,9.98
2008-10-22 00:00,18.18,49.7,12.89,13.88,11.75
2008-10-22 01:00,22.88,54.3,12.89,18.58,13.34
2008-10-22 02:00,20.24,46.2,12.83,14.61,14.00
2008-10-22 03:00,21.70,51.2,12.83,16.90,13.61
2008-10-22 04:00,8.51,63.8,12.33,7.63,3.75
2008-10-22 05:00,1.47,265.3,12.45,-1.46,-0.12
2008-10-22 06:00,,,,,
2008-10-22 07:00,18.77,232.6,12.77,-14.91,-11.41
2008-10-22 08:00,20.24,248.1,12.77,-18.77,-7.56
2008-10-22 09:00,30.50,221.3,12.67,-20.14,-22.91
2008-10-22 10:00,34.02,216.1,12.36,-20.02,-27.51
2008-10-22 11:00,24.93,221.7,12.20,-16.58,-18.62
2008-10-22 12:00,24.34,202.3,12.20,-9.25,-22.52
2008-10-22 13:00,17.89,203.8,12.20,-7.21,-16.38
2008-10-22 14:00,19.94,212.5,12.20,-10.73,-16.81
2008-10-22 15:00,27.86,218.9,12.20,-17.49,-21.69
2008-10-22 16:00,26.69,203.0,12.17,-10.45,-24.56
2008-10-22 17:00,34.32,207.6,12.17,-15.91,-30.41
2008-10-22 18:00,33.14,212.9,12.14,-18.00,-27.83
2008-10-22 19:00,40.18,228.0,12.23,-29.87,-26.88
2008-10-22 20:00,51.62,210.1,12.30,-25.87,-44.67
2008-10-22 21:00,46.05,211.5,12.20,-24.05,-39.27
2008-10-22 22:00,39.01,203.4,12.20,-15.49,-35.80
2008-10-22 23:00,50.45,207.3,12.08,-23.11,-44.84
2008-10-23 00:00,46.34,192.1,11.98,-9.75,-45.30
2008-10-23 01:00,49.86,187.2,12.01,-6.27,-49.47
2008-10-23 02:00,54.85,199.2,12.08,-18.02,-51.80
2008-10-23 03:00,41.06,195.3,12.05,-10.84,-39.60
2008-10-23 04:00,47.81,206.6,12.05,-21.38,-42.76
2008-10-23 05:00,56.90,209.7,12.05,-28.22,-49.41
2008-10-23 06:00,,,,,
2008-10-23 07:00,51.91,206.6,12.01,-23.21,-46.43
2008-10-23 08:00,48.69,203.0,12.01,-19.06,-44.80
2008-10-23 09:00,56.31,210.1,12.01,-28.22,-48.73
2008-10-23 10:00,57.49,205.9,11.98,-25.07,-51.73
2008-10-23 11:00,43.41,178.8,11.98,0.92,-43.40
2008-10-23 12:00,39.30,173.2,11.98,4.68,-39.02
2008-10-23 13:00,27.86,181.6,11.98,-0.78,-27.85
2008-10-23 14:00,27.57,189.7,11.98,-4.64,-27.18
2008-10-23 15:00,,,,,
2008-10-23 16:00,20.82,204.1,11.95,-8.50,-19.01
2008-10-23 17:00,26.98,212.9,11.95,-14.65,-22.66
2008-10-23 18:00,29.04,243.5,11.95,-25.98,-12.96
2008-10-23 19:00,31.38,236.1,11.95,-26.05,-17.51
2008-10-23 20:00,26.69,246.3,11.95,-24.44,-10.73
2008-10-23 21:00,26.10,244.2,11.95,-23.50,-11.37
2008-10-23 22:00,30.50,239.3,11.92,-26.22,-15.59
2008-10-23 23:00,26.10,243.1,11.86,-23.29,-11.80
2008-10-24 00:00,12.61,250.2,11.86,-11.86,-4.28
2008-10-24 01:00,5.57,133.4,11.92,4.05,-3.83
2008-10-24 02:00,9.68,83.2,11.89,9.61,1.15
2008-10-24 03:00,15.84,70.1,11.86,14.90,5.38
2008-10-24 04:00,20.82,65.2,11.86,18.91,8.73
2008-10-24 05:00,22.88,71.5,11.86,21.70,7.24
2008-10-24 06:00,19.94,64.5,11.86,18.00,8.58
2008-10-24 07:00,14.08,62.1,11.89,12.44,6.60
2008-10-24 08:00,15.54,63.5,11.86,13.91,6.95
2008-10-24 09:00,16.13,54.3,11.83,13.10,9.41
2008-10-24 10:00,10.27,65.2,11.79,9.32,4.30
2008-10-24 11:00,12.32,75.1,11.83,11.90,3.17
2008-10-24 12:00,12.91,92.3,11.86,12.89,-0.52
2008-10-24 13:00,15.54,82.1,11.86,15.40,2.14
2008-10-24 14:00,15.54,80.3,11.92,15.32,2.61
2008-10-24 15:00,29.33,100.7,11.92,28.82,-5.46
2008-10-24 16:00,29.92,94.8,12.01,29.81,-2.48
2008-10-24 17:00,28.45,93.3,12.14,28.40,-1.66
2008-10-24 18:00,25.81,80.3,12.20,25.44,4.33
2008-10-24 19:00,14.08,80.7,12.23,13.89,2.28
2008-10-24 20:00,7.92,53.3,12.23,6.35,4.74
2008-10-24 21:00,10.85,35.0,12.20,6.22,8.89
2008-10-24 22:00,5.57,17.8,12.17,1.70,5.31
2008-10-24 23:00,8.51,45.5,12.08,6.07,5.96
2008-10-25 00:00,16.72,61.4,11.98,14.67,8.02
2008-10-25 01:00,19.06,65.2,11.95,17.31,7.99
2008-10-25 02:00,23.17,68.0,11.95,21.49,8.67
2008-10-25 03:00,34.32,78.9,12.08,33.68,6.59
2008-10-25 04:00,37.25,84.9,12.14,37.10,3.31
2008-10-25 05:00,38.13,80.7,12.11,37.63,6.17
2008-10-25 06:00,38.42,74.0,12.01,36.94,10.58
2008-10-25 07:00,26.10,83.5,11.95,25.94,2.95
2008-10-25 08:00,14.08,82.1,11.95,13.94,1.94
2008-10-25 09:00,12.03,70.1,11.95,11.31,4.08
2008-10-25 10:00,8.21,68.4,11.92,7.63,3.03
2008-10-25 11:00,3.23,66.3,11.92,2.95,1.30